Torna al catalogo

CZ-2D R/B

AttivoSSO
NORAD 53878·ROCKET BODY·🇨🇳 China

Lanciato Sep 20, 2022 da Jiuquan Satellite Launch Center

Loading…

Prossimi Passaggi (prossime 24 ore)

TLE

AggiornatoSource: Space-Track

Epoca: Sep 14, 2026, 11:27 UTC

1 53878U 22115B   26257.47743112  .00000582  00000-0  92217-4 0  9993
2 53878  98.4070 336.1881 0116357 149.1140 211.6980 14.71957678213697

Traccia CZ-2D R/B in tempo reale con AllMySat

Download on the App Store